Regional Weather Roundup
Issued by NWS Charleston, SC

Home | Current Version | Previous Version | Text Only | Print | Product List | Glossary On
Versions: 1 2 3 4 5 6 7 8 9 10 11 12 13 14 15 16 17 18 19 20 21 22 23 24 25 26 27 28 29 30 31 32 33 34 35 36 37 38 39 40 41 42 43 44 45 46 47 48 49 50
000
ASUS42 KCHS 250913
RWRCHS

REGIONAL WEATHER ROUNDUP
NATIONAL WEATHER SERVICE CHARLESTON SC
500 AM EDT SUN SEP 25 2016

NOTE: "FAIR" INDICATES FEW OR NO CLOUDS BELOW 12,000 FEET WITH NO
SIGNIFICANT WEATHER AND/OR OBSTRUCTIONS TO VISIBILITY.

NOT ALL STATIONS ARE QUALITY CONTROLLED. USE DATA WITH CAUTION...
ESPECIALLY DEWPOINT OBSERVATIONS.

SCZ027-030-031-034>040-042>050-251000-
...SOUTHEAST SOUTH CAROLINA...

CITY           SKY/WX    TMP DP  RH WIND       PRES   REMARKS
N CHARLESTON   PTCLDY    72  70  93 NW5       30.03R
WATERFRONT PRK   N/A     77  75  93 N5        30.00S
MOUNT PLEASANT FAIR      72  72 100 CALM      30.03S
JOHNS ISLAND   FAIR      73  73 100 CALM      30.03R
PINOPOLIS        N/A     73  73 100 MISG      29.96R
MONCKS CORNER  PTSUNNY   66  66 100 CALM      30.04S FOG
SUMMERVILLE    FOG       68  68 100 CALM      30.05R VSB 3/4
BEAUFORT MCAS  PTCLDY    75  73  93 N5        30.03S
BEAUFORT ARPT  FAIR      73  73 100 N3        30.02S
HILTON HEAD IS PTCLDY    75  75 100 CALM      30.03S
WALTERBORO     FOG       70  70 100 CALM      30.05R VSB 3/4
ALLENDALE      PTSUNNY   70  68  94 CALM      30.05R

...SOUTHERN MIDLANDS AND PEE DEE...

CITY           SKY/WX    TMP DP  RH WIND       PRES   REMARKS
GEORGETOWN     FAIR      66  64  94 CALM      30.04S FOG
KINGSTREE      FOG       64  64 100 CALM      30.05S VSB 1/4
ORANGEBURG     CLEAR     68  68 100 CALM      30.05S
BARNWELL       NOT AVBL
AIKEN          FAIR      64  63  94 CALM      30.10R
MANNING        FOG       64  63  94 CALM      30.05S VSB 3/4
COLUMBIA       CLEAR     69  65  86 CALM      30.05R
SUMTER         CLEAR     69  67  93 W1        30.03S
FLORENCE       CLEAR     69  67  93 CALM      30.06R
MYRTLE BEACH   CLEAR     72  63  73 CALM      30.06R
N MYRTLE BEACH CLEAR     69  68  96 CALM      30.04R FOG

$$

GAZ063-065-086>088-099>101-113>116-118-119-134>141-150-251000-
...SOUTHEAST GEORGIA...

CITY           SKY/WX    TMP DP  RH WIND       PRES   REMARKS
SAVANNAH ARPT  MOCLDY    73  71  93 N3        30.03S
HUNTER AAF     PTCLDY    72  72 100 W3        30.00S
FORT STEWART   PTCLDY    72  70  94 CALM      30.01S
STATESBORO     CLOUDY    73  72  98 CALM      30.04S
SYLVANIA       NOT AVBL
CLAXTON        FAIR      70  70 100 CALM      30.04S

...CSRA...CENTRAL AND FAR SOUTHEAST GEORGIA...

CITY           SKY/WX    TMP DP  RH WIND       PRES   REMARKS
THOMSON        CLEAR     65  65 100 CALM      30.11R
AUGUSTA-BUSH   FOG       64  64 100 CALM      30.05R VSB 3/4
AUGUSTA-DANIEL CLEAR     72  66  81 CALM      30.07R
SWAINSBORO     FAIR      72  70  94 CALM      30.06R
VIDALIA        CLOUDY    73  73 100 CALM      30.05R
EASTMAN        CLOUDY    70  70 100 CALM      30.07R
HAZLEHURST     FAIR      73  73 100 CALM      30.03S FOG
ALMA           CLEAR     70  70 100 CALM      30.03S
WAYCROSS       FOG       73  73 100 CALM      30.03R VSB 1/2
JESUP          PTSUNNY   72  72 100 CALM      30.03S
BAXLEY         FAIR      72  72 100 CALM      30.04R
BRUNSWICK        N/A     72  72 100 CALM      30.03S FOG
SAINT SIMONS   CLEAR     74  72  93 CALM      30.01F

$$

SCZ027-028-034-036>038-045-046-048>050-GAZ119-141-251000-
...LAKE AND SUPPLEMENTAL COASTAL OBSERVATIONS...

STATION/POSITION TIME  TEMP    WIND        PRES    WAVE   SWELL
                       AIR SEA DIR/SP/G            HT/PER HT/PER/DIR
                 (UTC) (F)     (DEG/KT/KT) (MB)    (FT/S) (FT/S/D)
WINYAH BAY       0745   71     320/  3     1016.0
LAKE MURRAY      0820   73        CALM     1017.3R
ACE BASIN NERRS  0745   73        CALM     1017.0
FORT PULASKI     0842   76 81  320/  5/  6 1017.0S
SAPELO ISLAND    0800   74        CALM     1016.0

$$

ANZ835-935-AMZ111-154-330-350-352-354-370-450-454-472-251000-
...C-MAN AND BUOY OBSERVATIONS...

STATION/POSITION TIME  TEMP    WIND        PRES    WAVE   SWELL
                       AIR SEA DIR/SP/G            HT/PER HT/PER/DIR
                 (UTC) (F)     (DEG/KT/KT) (MB)    (FT/S) (FT/S/D)
BUOY 41004       0850   80 82   50/ 10/ 12 1015.7R   4/11   3/100/11
BUOY 41008       0850   80 82  340/  4/  4 1016.0S   3/11   3/100/11
FOLLY BEACH CMAN 0900   76     340/  4/  6 1016.9R
CAPERS NEARSHORE 0808   80 81   40/  6/  8 1016.1F
FRIPP NEARSHORE  0808   79 81   50/  6/  8 1016.2F


STATION/POSITION TIME  TEMP    WIND        PRES    WAVE   SWELL
                       AIR SEA DIR/SP/G            HT/PER HT/PER/DIR
                 (UTC) (F)     (DEG/KT/KT) (MB)    (FT/S) (FT/S/D)
5E ST. MARYS GA  0801      82                N/A     3/11   2/100/11
FRYING PAN BUOY  0850   81 82   60/ 10/ 12 1016.5R   4/12   3/100/12
BUOY 41025       0850   76 85   30/ 14/ 17 1017.0R   6/10   5/120/10
CAPE LOOKOUT NC  0900   77      50/ 14/ 16 1017.5R
BUOY 41002       0850   81 84   40/  4/  6 1015.2R   4/11   3/100/11
BUOY 41010       NOT AVBL
ST AUGUSTINE FL  0900   76 84  270/  2/  3 1017.3R


$$




USA.gov is the U.S. government's official web portal to all federal, state and local government web resources and services.